Retour au catalogue

COSMOS 2076

LostNavigationHEO
NORAD 20596·PAYLOAD·🇷🇺 Russia

Lancé Apr 28, 1990 depuis Plesetsk Cosmodrome

Loading…

Prochains Passages (prochaines 24 heures)

TLE

PériméSource: Space-Track

Époque: Sep 16, 2025, 13:17 UTC

1 20596U 90040A   25259.55383186  .00000018  00000-0  00000+0 0  9995
2 20596  68.6654 210.2926 4874395 113.6019  23.9114  2.00705145259260

Suivez COSMOS 2076 en temps réel avec AllMySat

Download on the App Store